• In Deutschland
  • Länderverzeichnis
  • Für 7 Tage
  • Wassertemperatur
  • Satellitenkarten
  • Wetterkarte
  • Widgets
  • user-avatar
    Anmelden

    Stündliche Wetter Geilenkirchen

    Heute, 20 September, Donnerstag

    Zeit Temperatur Niederschläge Wind Luftdruck Luftfeuchtigkeit
    00:00 +18°C° 0 mm 2 m/S 755 mmHg 80%
    01:00 +18°C° 0 mm 2 m/S 755 mmHg 80%
    02:00 +17°C° 0 mm 2 m/S 755 mmHg 80%
    03:00 +17°C° 0 mm 2 m/S 755 mmHg 80%
    04:00 +17°C° 0 mm 3 m/S 755 mmHg 80%
    05:00 +17°C° 0 mm 3 m/S 755 mmHg 79%
    06:00 +17°C° 0 mm 3 m/S 755 mmHg 78%
    07:00 +19°C° 0 mm 3 m/S 755 mmHg 73%
    08:00 +21°C° 0 mm 4 m/S 755 mmHg 67%
    09:00 +23°C° 0 mm 5 m/S 755 mmHg 61%
    10:00 +23°C° 0 mm 5 m/S 755 mmHg 58%
    11:00 +25°C° 0 mm 5 m/S 755 mmHg 54%
    12:00 +26°C° 0 mm 5 m/S 754 mmHg 50%
    13:00 +27°C° 0 mm 5 m/S 754 mmHg 50%
    14:00 +27°C° 0 mm 5 m/S 753 mmHg 49%
    15:00 +27°C° 0 mm 5 m/S 753 mmHg 49%
    16:00 +25°C° 0 mm 4 m/S 752 mmHg 54%
    17:00 +23°C° 0 mm 4 m/S 752 mmHg 59%
    18:00 +21°C° 0 mm 3 m/S 752 mmHg 64%
    19:00 +21°C° 0 mm 3 m/S 751 mmHg 62%
    20:00 +21°C° 0 mm 4 m/S 751 mmHg 61%
    21:00 +20°C° 0 mm 4 m/S 750 mmHg 60%
    22:00 +21°C° 0 mm 4 m/S 750 mmHg 58%
    23:00 +21°C° 0 mm 5 m/S 749 mmHg 56%

    Morgen, 21 September, Freitag

    Zeit Temperatur Niederschläge Wind Luftdruck Luftfeuchtigkeit
    00:00 +21°C° 0 mm 5 m/S 749 mmHg 54%
    01:00 +21°C° 0 mm 5 m/S 748 mmHg 55%
    02:00 +21°C° 0 mm 5 m/S 747 mmHg 56%
    03:00 +21°C° 0 mm 6 m/S 747 mmHg 57%
    04:00 +21°C° 0 mm 7 m/S 746 mmHg 58%
    05:00 +21°C° 0 mm 7 m/S 746 mmHg 58%
    06:00 +21°C° 0 mm 8 m/S 745 mmHg 59%
    07:00 +18°C° 1.3 mm 8 m/S 746 mmHg 66%
    08:00 +17°C° 1.3 mm 8 m/S 747 mmHg 72%
    09:00 +15°C° 1.3 mm 7 m/S 747 mmHg 79%
    10:00 +16°C° 0.3 mm 7 m/S 748 mmHg 70%
    11:00 +16°C° 0.3 mm 8 m/S 749 mmHg 61%
    12:00 +17°C° 0.3 mm 8 m/S 750 mmHg 52%
    13:00 +17°C° 0 mm 8 m/S 751 mmHg 49%
    14:00 +17°C° 0 mm 8 m/S 751 mmHg 46%
    15:00 +17°C° 0 mm 8 m/S 752 mmHg 43%
    16:00 +16°C° 0 mm 7 m/S 752 mmHg 46%
    17:00 +14°C° 0 mm 6 m/S 753 mmHg 49%
    18:00 +13°C° 0 mm 5 m/S 753 mmHg 53%
    19:00 +13°C° 0 mm 5 m/S 754 mmHg 55%
    20:00 +13°C° 0 mm 6 m/S 755 mmHg 57%
    21:00 +11°C° 0 mm 6 m/S 755 mmHg 60%
    22:00 +11°C° 0 mm 6 m/S 755 mmHg 62%
    23:00 +12°C° 0 mm 5 m/S 756 mmHg 65%

    übermorgen, 22 September, Samstag

    Zeit Temperatur Niederschläge Wind Luftdruck Luftfeuchtigkeit
    00:00 +12°C° 0 mm 5 m/S 756 mmHg 68%
    01:00 +10°C° 0 mm 5 m/S 756 mmHg 70%
    02:00 +10°C° 0 mm 5 m/S 756 mmHg 72%
    03:00 +11°C° 0 mm 4 m/S 757 mmHg 74%
    04:00 +10°C° 0 mm 4 m/S 757 mmHg 75%
    05:00 +10°C° 0 mm 4 m/S 757 mmHg 76%
    06:00 +10°C° 0 mm 4 m/S 758 mmHg 77%
    07:00 +12°C° 0 mm 5 m/S 758 mmHg 72%
    08:00 +13°C° 0 mm 5 m/S 758 mmHg 66%
    09:00 +14°C° 0 mm 5 m/S 758 mmHg 60%
    10:00 +15°C° 0 mm 5 m/S 758 mmHg 57%
    11:00 +16°C° 0 mm 5 m/S 758 mmHg 53%
    12:00 +17°C° 0 mm 5 m/S 758 mmHg 50%
    13:00 +16°C° 0 mm 5 m/S 758 mmHg 51%
    14:00 +16°C° 0 mm 5 m/S 758 mmHg 52%
    15:00 +17°C° 0 mm 4 m/S 758 mmHg 54%
    16:00 +16°C° 0 mm 3 m/S 758 mmHg 58%
    17:00 +14°C° 0 mm 3 m/S 758 mmHg 63%
    18:00 +14°C° 0 mm 2 m/S 758 mmHg 68%
    19:00 +14°C° 0.1 mm 2 m/S 758 mmHg 71%
    20:00 +13°C° 0.1 mm 2 m/S 758 mmHg 74%
    21:00 +13°C° 0.1 mm 2 m/S 757 mmHg 78%
    22:00 +13°C° 0.3 mm 2 m/S 757 mmHg 80%
    23:00 +13°C° 0.3 mm 2 m/S 756 mmHg 82%

    23 September, Sonntag

    Zeit Temperatur Niederschläge Wind Luftdruck Luftfeuchtigkeit
    00:00 +12°C° 0.3 mm 3 m/S 755 mmHg 84%
    01:00 +12°C° 0.8 mm 3 m/S 754 mmHg 84%
    02:00 +12°C° 0.8 mm 4 m/S 753 mmHg 85%
    03:00 +12°C° 0.8 mm 4 m/S 752 mmHg 85%
    04:00 +13°C° 1.2 mm 5 m/S 751 mmHg 87%
    05:00 +14°C° 1.2 mm 5 m/S 750 mmHg 89%
    06:00 +15°C° 1.2 mm 6 m/S 749 mmHg 91%
    07:00 +16°C° 0.5 mm 7 m/S 748 mmHg 90%
    08:00 +17°C° 0.5 mm 7 m/S 748 mmHg 90%
    09:00 +18°C° 0.5 mm 8 m/S 747 mmHg 90%
    10:00 +19°C° 0.5 mm 9 m/S 746 mmHg 88%
    11:00 +21°C° 0.5 mm 9 m/S 746 mmHg 86%
    12:00 +21°C° 0.5 mm 10 m/S 745 mmHg 84%
    13:00 +21°C° 1.8 mm 10 m/S 744 mmHg 84%
    14:00 +21°C° 1.8 mm 10 m/S 743 mmHg 84%
    15:00 +19°C° 1.8 mm 11 m/S 742 mmHg 83%
    16:00 +17°C° 3.5 mm 10 m/S 743 mmHg 85%
    17:00 +15°C° 3.5 mm 9 m/S 744 mmHg 86%
    18:00 +12°C° 3.5 mm 9 m/S 745 mmHg 88%
    19:00 +11°C° 0.2 mm 8 m/S 748 mmHg 87%
    20:00 +10°C° 0.2 mm 7 m/S 750 mmHg 86%
    21:00 +9°C° 0.2 mm 7 m/S 753 mmHg 85%
    22:00 +9°C° 0 mm 6 m/S 754 mmHg 84%
    23:00 +9°C° 0 mm 5 m/S 756 mmHg 83%

    24 September, Montag

    Zeit Temperatur Niederschläge Wind Luftdruck Luftfeuchtigkeit
    00:00 +8°C° 0 mm 4 m/S 758 mmHg 82%
    01:00 +8°C° 0 mm 4 m/S 759 mmHg 82%
    02:00 +8°C° 0 mm 3 m/S 760 mmHg 82%
    03:00 +8°C° 0 mm 3 m/S 761 mmHg 82%
    04:00 +8°C° 0 mm 3 m/S 762 mmHg 83%
    05:00 +8°C° 0 mm 3 m/S 762 mmHg 83%
    06:00 +8°C° 0 mm 2 m/S 763 mmHg 84%
    07:00 +9°C° 0 mm 3 m/S 764 mmHg 76%
    08:00 +11°C° 0 mm 3 m/S 764 mmHg 69%
    09:00 +13°C° 0 mm 4 m/S 765 mmHg 61%
    10:00 +13°C° 0.1 mm 4 m/S 765 mmHg 58%
    11:00 +14°C° 0.1 mm 4 m/S 765 mmHg 54%
    12:00 +15°C° 0.1 mm 4 m/S 766 mmHg 51%
    13:00 +14°C° 0.1 mm 4 m/S 766 mmHg 51%
    14:00 +14°C° 0.1 mm 5 m/S 766 mmHg 51%
    15:00 +14°C° 0.1 mm 5 m/S 766 mmHg 51%
    16:00 +13°C° 0 mm 4 m/S 766 mmHg 58%
    17:00 +11°C° 0 mm 3 m/S 767 mmHg 64%
    18:00 +10°C° 0 mm 2 m/S 767 mmHg 71%
    19:00 +9°C° 0 mm 2 m/S 767 mmHg 73%
    20:00 +9°C° 0 mm 2 m/S 768 mmHg 75%
    21:00 +9°C° 0 mm 1 m/S 768 mmHg 77%
    22:00 +8°C° 0 mm 2 m/S 769 mmHg 78%
    23:00 +7°C° 0 mm 2 m/S 769 mmHg 79%

    25 September, Dienstag

    Zeit Temperatur Niederschläge Wind Luftdruck Luftfeuchtigkeit
    00:00 +7°C° 0 mm 2 m/S 769 mmHg 79%
    01:00 +7°C° 0 mm 2 m/S 769 mmHg 80%
    02:00 +7°C° 0 mm 2 m/S 769 mmHg 80%
    03:00 +6°C° 0 mm 2 m/S 768 mmHg 80%
    04:00 +7°C° 0 mm 2 m/S 769 mmHg 80%
    05:00 +7°C° 0 mm 2 m/S 769 mmHg 79%
    06:00 +7°C° 0 mm 2 m/S 769 mmHg 79%
    07:00 +9°C° 0 mm 3 m/S 769 mmHg 73%
    08:00 +11°C° 0 mm 3 m/S 769 mmHg 67%
    09:00 +13°C° 0 mm 3 m/S 769 mmHg 61%
    10:00 +13°C° 0 mm 3 m/S 769 mmHg 59%
    11:00 +14°C° 0 mm 3 m/S 768 mmHg 57%
    12:00 +16°C° 0 mm 3 m/S 768 mmHg 55%
    13:00 +16°C° 0 mm 3 m/S 768 mmHg 56%
    14:00 +16°C° 0 mm 3 m/S 768 mmHg 57%
    15:00 +16°C° 0 mm 3 m/S 767 mmHg 58%
    16:00 +15°C° 0 mm 2 m/S 767 mmHg 65%
    17:00 +13°C° 0 mm 2 m/S 767 mmHg 71%
    18:00 +12°C° 0 mm 1 m/S 767 mmHg 78%
    19:00 +11°C° 0 mm 1 m/S 768 mmHg 80%
    20:00 +11°C° 0 mm 1 m/S 768 mmHg 82%
    21:00 +9°C° 0 mm 0 m/S 768 mmHg 84%
    22:00 +9°C° 0 mm 0 m/S 768 mmHg 85%
    23:00 +10°C° 0 mm 1 m/S 768 mmHg 86%
    Mehr zeigen